This demonstration page uses our WeatherBlox Daily Observations layout. Learn more.

Left ArrowRight Arrow

36.19886, -115.1175

Hourly Observations for February 21, 2021

Temp ( °F °C ) Dew Point ( °F °C ) Humidity (%) Winds ( mph kmh ) Pressure ( in mb ) Visibility ( mi km ) Precip ( " mm )
12:53 am 00:53 Clear 51 10.6 16 -8.9 25 25 NNW 20 31 30.29 1026 10 16 N/A
1:53 am 01:53 Clear 49 9.4 15 -9.4 26 26 NNW 14 22 30.32 1027 10 16 N/A
2:53 am 02:53 Clear 46 7.8 15 -9.4 29 29 NNW 15 24 30.32 1027 10 16 N/A
3:53 am 03:53 Clear 45 7.2 15 -9.4 30 30 NNW 14 22 30.35 1028 10 16 N/A
4:53 am 04:53 Clear 46 7.8 15 -9.4 29 29 NNW 15 24 30.35 1028 10 16 N/A
5:53 am 05:53 Clear 45 7.2 15 -9.4 30 30 N 13 20 30.38 1029 10 16 N/A
6:53 am 06:53 Sunny 45 7.2 16 -8.9 31 31 NNW 9 15 30.40 1029 10 16 N/A
7:53 am 07:53 Sunny 50 10 16 -8.9 26 26 N 13 20 30.43 1030 10 16 N/A
8:53 am 08:53 Sunny 53 11.7 17 -8.3 24 24 NW 13 20 30.44 1031 10 16 N/A
9:53 am 09:53 Sunny 55 12.8 16 -8.9 21 21 NW 15 24 30.45 1031 10 16 N/A
10:53 am 10:53 Sunny 58 14.4 15 -9.4 18 18 NW 10 17 30.43 1031 10 16 N/A
11:53 am 11:53 Sunny 57 13.9 15 -9.4 19 19 NNW 12 19 30.42 1030 10 16 N/A
12:53 pm 12:53 Sunny 59 15 13 -10.6 16 16 VRB 3 6 30.39 1029 10 16 N/A
1:53 pm 13:53 Sunny 61 16.1 12 -11.1 14 14 VRB 6 9 30.36 1028 10 16 N/A
2:53 pm 14:53 Sunny 62 16.7 11 -11.7 13 13 NNE 5 7 30.35 1028 10 16 N/A
3:53 pm 15:53 Sunny 63 17.2 10 -12.2 12 12 undefined N/A 30.35 1028 10 16 N/A
4:53 pm 16:53 Sunny 63 17.2 8 -13.3 11 11 NNE 3 6 30.34 1027 10 16 N/A
5:53 pm 17:53 Clear 57 13.9 9 -12.8 15 15 ESE 6 9 30.35 1028 10 16 N/A
6:53 pm 18:53 Clear 56 13.3 10 -12.2 16 16 ENE 3 6 30.37 1029 10 16 N/A
7:53 pm 19:53 Clear 53 11.7 12 -11.1 19 19 WNW 6 9 30.39 1029 10 16 N/A
8:53 pm 20:53 Clear 51 10.6 13 -10.6 22 22 WNW 6 9 30.40 1029 10 16 N/A
9:53 pm 21:53 Clear 50 10 13 -10.6 22 22 N N/A 30.41 1030 10 16 N/A
10:53 pm 22:53 Clear 48 8.9 13 -10.6 24 24 NNW 7 11 30.41 1030 10 16 N/A
11:53 pm 23:53 Clear 47 8.3 13 -10.6 25 25 WNW 6 9 30.41 1030 10 16 N/A

Powered by AerisWeather